EN

Hourly Weather Barra Bonita

Today, 20 January, Wednesday

Time Temperature Precipitation Wind Pressure Humidity
00:00 +22°C° 0 mm 3 mps 722 mmHg 95%
01:00 +22°C° 0 mm 3 mps 721 mmHg 96%
02:00 +22°C° 0 mm 3 mps 721 mmHg 96%
03:00 +22°C° 0 mm 3 mps 721 mmHg 97%
04:00 +22°C° 0 mm 3 mps 721 mmHg 96%
05:00 +23°C° 0 mm 2 mps 721 mmHg 96%
06:00 +23°C° 0 mm 2 mps 721 mmHg 96%
07:00 +24°C° 0.3 mm 2 mps 721 mmHg 93%
08:00 +26°C° 0.3 mm 2 mps 722 mmHg 90%
09:00 +27°C° 0 mm 2 mps 723 mmHg 85%
10:00 +28°C° 0.9 mm 2 mps 722 mmHg 79%
11:00 +29°C° 0.9 mm 2 mps 722 mmHg 74%
12:00 +31°C° 0.9 mm 2 mps 722 mmHg 68%
13:00 +31°C° 0.5 mm 1 mps 721 mmHg 66%
14:00 +32°C° 0.5 mm 1 mps 721 mmHg 63%
15:00 +32°C° 0.5 mm 1 mps 721 mmHg 60%
16:00 +31°C° 0.5 mm 1 mps 721 mmHg 68%
17:00 +29°C° 0.5 mm 1 mps 720 mmHg 75%
18:00 +28°C° 0.5 mm 1 mps 720 mmHg 83%
19:00 +27°C° 0.1 mm 2 mps 720 mmHg 85%
20:00 +26°C° 0.1 mm 2 mps 721 mmHg 87%
21:00 +24°C° 0.1 mm 2 mps 721 mmHg 90%
22:00 +24°C° 0 mm 2 mps 721 mmHg 91%
23:00 +24°C° 0 mm 2 mps 722 mmHg 92%

Tomorrow, 21 January, Thursday

Time Temperature Precipitation Wind Pressure Humidity
00:00 +22°C° 0 mm 3 mps 722 mmHg 94%
01:00 +22°C° 0.2 mm 3 mps 722 mmHg 94%
02:00 +22°C° 0.2 mm 3 mps 721 mmHg 95%
03:00 +22°C° 0.2 mm 3 mps 721 mmHg 95%
04:00 +22°C° 0.2 mm 3 mps 721 mmHg 95%
05:00 +22°C° 0.2 mm 3 mps 722 mmHg 96%
06:00 +23°C° 0.2 mm 2 mps 722 mmHg 96%
07:00 +24°C° 0.1 mm 2 mps 722 mmHg 92%
08:00 +25°C° 0.1 mm 3 mps 723 mmHg 88%
09:00 +27°C° 0.1 mm 3 mps 723 mmHg 84%
10:00 +28°C° 0.4 mm 3 mps 723 mmHg 78%
11:00 +29°C° 0.4 mm 3 mps 723 mmHg 73%
12:00 +30°C° 0.4 mm 3 mps 723 mmHg 68%
13:00 +30°C° 0.3 mm 3 mps 722 mmHg 67%
14:00 +31°C° 0.3 mm 3 mps 722 mmHg 66%
15:00 +31°C° 0.3 mm 2 mps 721 mmHg 66%
16:00 +30°C° 0.2 mm 2 mps 721 mmHg 68%
17:00 +30°C° 0.2 mm 1 mps 721 mmHg 71%
18:00 +27°C° 0.2 mm 0 mps 721 mmHg 74%
19:00 +28°C° 0 mm 1 mps 722 mmHg 76%
20:00 +26°C° 0 mm 1 mps 722 mmHg 79%
21:00 +25°C° 0 mm 1 mps 722 mmHg 81%
22:00 +24°C° 0 mm 2 mps 723 mmHg 84%
23:00 +24°C° 0 mm 2 mps 723 mmHg 87%

Day after tomorrow, 22 January, Friday

Time Temperature Precipitation Wind Pressure Humidity
00:00 +24°C° 0 mm 2 mps 723 mmHg 89%
01:00 +23°C° 0.1 mm 2 mps 723 mmHg 90%
02:00 +23°C° 0.1 mm 2 mps 723 mmHg 90%
03:00 +23°C° 0.1 mm 1 mps 722 mmHg 91%
04:00 +23°C° 0 mm 1 mps 723 mmHg 91%
05:00 +22°C° 0 mm 1 mps 723 mmHg 91%
06:00 +22°C° 0 mm 1 mps 723 mmHg 92%
07:00 +24°C° 0 mm 2 mps 724 mmHg 86%
08:00 +26°C° 0 mm 2 mps 724 mmHg 81%
09:00 +27°C° 0 mm 2 mps 725 mmHg 75%
10:00 +28°C° 0 mm 2 mps 725 mmHg 69%
11:00 +30°C° 0 mm 2 mps 725 mmHg 62%
12:00 +31°C° 0 mm 2 mps 725 mmHg 56%
13:00 +31°C° 0 mm 2 mps 724 mmHg 55%
14:00 +31°C° 0 mm 2 mps 723 mmHg 53%
15:00 +32°C° 0 mm 2 mps 723 mmHg 52%
16:00 +31°C° 0 mm 1 mps 723 mmHg 57%
17:00 +30°C° 0 mm 1 mps 722 mmHg 62%
18:00 +29°C° 0 mm 1 mps 722 mmHg 68%
19:00 +28°C° 0 mm 1 mps 723 mmHg 69%
20:00 +26°C° 0 mm 1 mps 723 mmHg 71%
21:00 +25°C° 0 mm 1 mps 723 mmHg 72%
22:00 +24°C° 0.1 mm 2 mps 723 mmHg 77%
23:00 +24°C° 0.1 mm 2 mps 724 mmHg 82%

23 January, Saturday

Time Temperature Precipitation Wind Pressure Humidity
00:00 +22°C° 0.1 mm 3 mps 724 mmHg 86%
01:00 +22°C° 0 mm 3 mps 723 mmHg 87%
02:00 +22°C° 0 mm 3 mps 723 mmHg 88%
03:00 +21°C° 0 mm 3 mps 723 mmHg 88%
04:00 +21°C° 0 mm 2 mps 723 mmHg 89%
05:00 +21°C° 0 mm 2 mps 723 mmHg 90%
06:00 +21°C° 0 mm 2 mps 723 mmHg 91%
07:00 +23°C° 0 mm 2 mps 723 mmHg 86%
08:00 +25°C° 0 mm 2 mps 724 mmHg 81%
09:00 +27°C° 0 mm 2 mps 724 mmHg 75%
10:00 +28°C° 0 mm 3 mps 724 mmHg 70%
11:00 +29°C° 0 mm 3 mps 724 mmHg 65%
12:00 +30°C° 0 mm 4 mps 724 mmHg 60%
13:00 +30°C° 0.5 mm 3 mps 723 mmHg 62%
14:00 +30°C° 0.5 mm 3 mps 722 mmHg 63%
15:00 +30°C° 0.5 mm 2 mps 722 mmHg 65%
16:00 +30°C° 0.4 mm 2 mps 722 mmHg 69%
17:00 +29°C° 0.4 mm 1 mps 722 mmHg 73%
18:00 +27°C° 0.4 mm 0 mps 722 mmHg 77%
19:00 +25°C° 0.5 mm 0 mps 722 mmHg 80%
20:00 +26°C° 0.5 mm 1 mps 722 mmHg 82%
21:00 +24°C° 0.5 mm 1 mps 722 mmHg 85%
22:00 +24°C° 0.2 mm 1 mps 722 mmHg 87%
23:00 +23°C° 0.2 mm 1 mps 722 mmHg 89%

24 January, Sunday

Time Temperature Precipitation Wind Pressure Humidity
00:00 +23°C° 0.2 mm 2 mps 722 mmHg 91%
01:00 +23°C° 0.2 mm 2 mps 722 mmHg 92%
02:00 +22°C° 0.2 mm 1 mps 722 mmHg 92%
03:00 +22°C° 0.2 mm 1 mps 721 mmHg 93%
04:00 +22°C° 0.1 mm 1 mps 721 mmHg 93%
05:00 +22°C° 0.1 mm 1 mps 721 mmHg 93%
06:00 +22°C° 0.1 mm 1 mps 721 mmHg 93%
07:00 +23°C° 0 mm 2 mps 722 mmHg 89%
08:00 +25°C° 0 mm 2 mps 722 mmHg 85%
09:00 +26°C° 0 mm 2 mps 723 mmHg 80%
10:00 +27°C° 0 mm 2 mps 723 mmHg 75%
11:00 +29°C° 0 mm 2 mps 723 mmHg 69%
12:00 +30°C° 0 mm 2 mps 723 mmHg 63%
13:00 +30°C° 1.7 mm 2 mps 722 mmHg 67%
14:00 +29°C° 1.7 mm 1 mps 721 mmHg 72%
15:00 +29°C° 1.7 mm 1 mps 720 mmHg 77%
16:00 +28°C° 1.5 mm 1 mps 720 mmHg 80%
17:00 +27°C° 1.5 mm 1 mps 720 mmHg 83%
18:00 +26°C° 1.5 mm 1 mps 720 mmHg 86%
19:00 +25°C° 0.4 mm 1 mps 720 mmHg 87%
20:00 +24°C° 0.4 mm 1 mps 721 mmHg 89%
21:00 +23°C° 0.4 mm 1 mps 721 mmHg 90%
22:00 +23°C° 0.3 mm 1 mps 721 mmHg 91%
23:00 +23°C° 0.3 mm 2 mps 721 mmHg 92%

25 January, Monday

Time Temperature Precipitation Wind Pressure Humidity
00:00 +23°C° 0.3 mm 2 mps 721 mmHg 93%
01:00 +21°C° 0.2 mm 2 mps 721 mmHg 94%
02:00 +21°C° 0.2 mm 2 mps 720 mmHg 94%
03:00 +21°C° 0.2 mm 2 mps 720 mmHg 95%
04:00 +21°C° 0 mm 2 mps 720 mmHg 95%
05:00 +21°C° 0 mm 2 mps 720 mmHg 95%
06:00 +22°C° 0 mm 1 mps 720 mmHg 95%
07:00 +23°C° 0 mm 2 mps 721 mmHg 90%
08:00 +25°C° 0 mm 2 mps 721 mmHg 86%
09:00 +26°C° 0 mm 2 mps 722 mmHg 81%
10:00 +28°C° 0.1 mm 2 mps 722 mmHg 75%
11:00 +29°C° 0.1 mm 3 mps 721 mmHg 70%
12:00 +30°C° 0.1 mm 3 mps 721 mmHg 64%
13:00 +30°C° 0.4 mm 3 mps 721 mmHg 65%
14:00 +30°C° 0.4 mm 2 mps 720 mmHg 65%
15:00 +30°C° 0.4 mm 2 mps 720 mmHg 66%
16:00 +29°C° 0.7 mm 1 mps 719 mmHg 72%
17:00 +28°C° 0.7 mm 1 mps 719 mmHg 77%
18:00 +28°C° 0.7 mm 1 mps 719 mmHg 82%
19:00 +26°C° 0.1 mm 1 mps 720 mmHg 84%
20:00 +25°C° 0.1 mm 1 mps 720 mmHg 85%
21:00 +24°C° 0.1 mm 2 mps 720 mmHg 87%
22:00 +24°C° 0 mm 2 mps 720 mmHg 88%
23:00 +23°C° 0 mm 2 mps 720 mmHg 90%
Show more

We Need Your Consent

Meteoprog and our Service Providers may store and access personal data such as cookies, device identifiers or other similar technologies on your device and process such data to personalise content and ads, as well as provide social media features and to analyse the traffic.

  • Store and/or access information on your device

    Cookies, device identifiers or other information can be stored or accessed on your device for the purposes indicated above.

  • Personalised ads and content, ad and content measurement, audience insights, and products development

    Ads and content can be personalised based on a profile. More data can be added to better personalise ads and content. Ad and content performance can be measured. Insights about the audience who saw the ads and content can be derived. Such data can be used to develop or improve user’s experience, systems and software.

By clicking ‘I Agree’ you will allow the use of indicated cookies, device identifiers, web beacons or other similar technologies. Your settings can be changed in the browser on your device.

For certain purposes, legitimate interests may be relied on, rather than consent. You can read more about this in our Privacy and Cookie Policy.